FW0859 Weather Reports


time (UTC)temp
C
wind
direction
speed
KPH
gust
KPH
rain 1hr
cm
rain 24hr
cm
rain mn
cm
humidity
%
barometer
mb
20260510190019 23 18 11.3 19.3 0.00 0.00 0.00 72 1016.3
20260510184506 23 74 9.7 19.3 0.00 0.00 0.00 73 1016.2
20260510183011 23 68 8.0 20.9 0.00 0.00 0.00 75 1016.3
20260510181514 23 44 9.7 16.1 0.00 0.00 0.00 74 1016.4
20260510180002 23 44 11.3 22.5 0.00 0.00 0.00 74 1016.0
20260510174501 23 88 6.4 17.7 0.00 0.00 0.00 72 1015.9
20260510173107 23 57 9.7 20.9 0.00 0.00 0.00 71 1015.7
20260510171601 23 15 8.0 14.5 0.00 0.00 0.00 73 1015.7
20260510170106 23 26 4.8 11.3 0.00 0.00 0.00 77 1015.8
20260510164554 22 77 6.4 14.5 0.00 0.00 0.00 77 1015.8
20260510163051 22 30 3.2 17.7 0.00 0.00 0.00 76 1015.7
20260510161549 22 57 8.0 16.1 0.00 0.00 0.00 77 1015.9
20260510160049 22 22 8.0 16.1 0.00 0.00 0.00 75 1015.9
20260510154545 21 38 8.0 16.1 0.00 0.00 0.00 75 1016.1
20260510153043 20 17 6.4 12.9 0.00 0.00 0.00 77 1016.1
20260510151544 21 312 4.8 12.9 0.00 0.00 0.00 74 1015.8
20260510150039 21 324 3.2 8.0 0.00 0.00 0.00 76 1015.5
20260510144534 20 309 1.6 8.0 0.00 0.00 0.00 84 1015.5
20260510143035 19 325 1.6 4.8 0.00 0.00 0.00 87 1015.3
20260510141526 17 265 0.0 1.6 0.00 0.00 0.00 87 1015.2
20260510140023 17 265 0.0 3.2 0.00 0.00 0.00 89 1015.1
20260510134519 16 265 0.0 1.6 0.00 0.00 0.00 91 1014.9
20260510133033 15 265 0.0 1.6 0.00 0.00 0.00 93 1014.7
20260510131513 15 265 0.0 3.2 0.00 0.00 0.00 95 1014.7
20260510130009 14 265 0.0 1.6 0.00 0.00 0.00 95 1014.4
20260510124508 13 265 0.0 0.0 0.00 0.00 0.00 96 1014.3
20260510123003 13 265 0.0 0.0 0.00 0.00 0.00 96 1014.4
20260510121501 12 265 0.0 3.2 0.00 0.00 0.00 95 1014.5
20260510120100 12 265 0.0 3.2 0.00 0.00 0.00 96 1014.4
20260510114604 12 173 0.0 1.6 0.00 0.00 0.00 96 1014.3
20260510113100 12 173 0.0 1.6 0.00 0.00 0.00 96 1014.3
20260510111600 11 173 0.0 1.6 0.00 0.00 0.00 96 1014.0
20260510110055 11 173 0.0 3.2 0.00 0.00 0.00 95 1014.0
20260510104556 12 297 1.6 9.7 0.00 0.00 0.00 96 1013.9
20260510103053 11 292 1.6 4.8 0.00 0.00 0.00 96 1013.6
20260510101552 11 189 0.0 0.0 0.00 0.00 0.00 96 1013.2
20260510100048 11 189 0.0 0.0 0.00 0.00 0.00 96 1012.8
20260510094546 11 189 0.0 0.0 0.00 0.00 0.00 96 1012.8
20260510093045 11 189 0.0 0.0 0.00 0.00 0.00 96 1013.0
20260510091644 11 189 0.0 0.0 0.00 0.00 0.00 95 1012.9
20260510090043 11 189 0.0 0.0 0.00 0.00 0.00 95 1012.9
20260510084541 11 163 0.0 0.0 0.00 0.00 0.00 95 1012.7
20260510083039 11 163 0.0 0.0 0.00 0.00 0.00 94 1012.4
20260510081545 11 161 0.0 0.0 0.00 0.00 0.00 94 1012.3
20260510080041 11 160 0.0 0.0 0.00 0.00 0.00 94 1012.1
20260510074535 11 160 0.0 0.0 0.00 0.00 0.00 94 1012.0
20260510073038 11 160 0.0 0.0 0.00 0.00 0.00 93 1012.1
20260510071531 12 160 0.0 0.0 0.00 0.00 0.00 93 1012.0
20260510070031 12 160 0.0 0.0 0.00 0.00 0.00 93 1012.1
20260510064535 12 160 0.0 0.0 0.00 0.00 0.00 92 1012.3
20260510063035 12 160 0.0 0.0 0.00 0.00 0.00 92 1012.4
20260510061526 12 160 0.0 0.0 0.00 0.00 0.00 91 1012.4
20260510060026 12 160 0.0 0.0 0.00 0.00 0.00 91 1012.4
20260510054525 12 160 0.0 0.0 0.00 0.00 0.00 90 1012.6
20260510053024 12 161 0.0 0.0 0.00 0.00 0.00 89 1012.5
20260510051522 12 157 0.0 0.0 0.00 0.00 0.00 89 1012.3
20260510050019 13 157 0.0 0.0 0.00 0.00 0.00 88 1012.2
20260510044617 13 157 0.0 0.0 0.00 0.00 0.00 87 1012.0
20260510043017 13 157 0.0 0.0 0.00 0.00 0.00 86 1011.8
20260510041516 13 157 0.0 0.0 0.00 0.00 0.00 85 1011.7
20260510040016 14 157 0.0 0.0 0.00 0.00 0.00 84 1011.7
20260510034514 14 157 0.0 0.0 0.00 0.00 0.00 84 1011.7
20260510033014 15 157 0.0 0.0 0.00 0.00 0.00 83 1011.5
20260510031517 15 157 0.0 0.0 0.00 0.00 0.00 82 1011.5
20260510030012 15 157 0.0 0.0 0.00 0.00 0.00 81 1011.3
20260510024510 16 157 0.0 0.0 0.00 0.00 0.00 80 1011.1
20260510023006 16 157 0.0 0.0 0.00 0.00 0.00 77 1010.9
20260510021504 17 157 0.0 0.0 0.00 0.00 0.00 75 1010.7
20260510020006 18 157 0.0 0.0 0.00 0.00 0.00 73 1010.4
20260510014505 18 157 0.0 1.6 0.00 0.00 0.00 69 1010.2
20260510013003 20 157 0.0 0.0 0.00 0.00 0.00 66 1010.1
20260510011503 21 157 0.0 3.2 0.00 0.00 0.00 63 1010.0
20260510010003 22 171 0.0 1.6 0.00 0.00 0.00 59 1009.8
20260510004600 23 143 0.0 0.0 0.00 0.00 0.00 54 1009.7
20260510003106 24 143 0.0 6.4 0.00 0.00 0.00 50 1009.3
20260510001559 25 154 1.6 6.4 0.00 0.00 0.00 46 1009.3
20260510000100 26 165 3.2 11.3 0.00 0.00 0.00 46 1009.1
20260509234605 27 156 0.0 1.6 0.00 0.00 0.00 45 1009.1
20260509233058 27 157 0.0 3.2 0.00 0.00 0.00 41 1009.0
20260509231558 28 144 1.6 9.7 0.00 0.00 0.00 39 1009.2
20260509230058 28 170 0.0 4.8 0.00 0.00 0.00 34 1009.1
20260509224601 28 186 1.6 8.0 0.00 0.00 0.00 35 1009.0
20260509223059 28 171 1.6 12.9 0.00 0.00 0.00 34 1009.0
20260509221605 28 279 3.2 12.9 0.00 0.00 0.00 36 1008.7
20260509220053 28 201 1.6 9.7 0.00 0.00 0.00 36 1008.7
20260509214556 27 108 1.6 11.3 0.00 0.00 0.00 36 1008.7
20260509213051 28 154 1.6 6.4 0.00 0.00 0.00 37 1008.8
20260509211555 28 283 1.6 11.3 0.00 0.00 0.00 36 1008.9
20260509210054 28 351 1.6 6.4 0.00 0.00 0.00 36 1009.0
20260509204551 28 293 8.0 12.9 0.00 0.00 0.00 38 1009.3
20260509203047 28 220 0.0 8.0 0.00 0.00 0.00 35 1009.4
20260509201554 27 258 1.6 12.9 0.00 0.00 0.00 35 1009.5
20260509200056 27 114 0.0 6.4 0.00 0.00 0.00 40 1009.7
20260509194541 27 26 3.2 9.7 0.00 0.00 0.00 39 1009.9
20260509193038 27 355 6.4 12.9 0.00 0.00 0.00 39 1010.0
20260509191537 27 293 9.7 14.5 0.00 0.00 0.00 39 1009.9